This demonstration page uses our WeatherBlox Daily Observations layout. Learn more.

Left ArrowRight Arrow

Hourly Observations for September 28, 2021

Temp ( °F °C ) Dew Point ( °F °C ) Humidity (%) Winds ( mph kmh ) Pressure ( in mb ) Visibility ( mi km ) Precip ( " mm )
12:53 am 00:53 Clear 59 15 28 -2.2 31 31 ENE 10 17 29.50 999 10 16 N/A
1:53 am 01:53 Clear 56 13.3 30 -1.1 37 37 E 9 15 29.48 998 10 16 N/A
2:53 am 02:53 Clear 51 10.6 29 -1.7 43 43 SSE 3 6 29.47 998 10 16 N/A
3:53 am 03:53 Clear 47 8.3 28 -2.2 48 48 SSW 5 7 29.49 999 10 16 N/A
4:53 am 04:53 Clear 41 5 27 -2.8 57 57 WSW 12 19 29.52 1000 10 16 N/A
5:53 am 05:53 Clear 40 4.4 27 -2.8 60 60 W 12 19 29.56 1001 10 16 N/A
6:53 am 06:53 Clear 45 7.2 30 -1.1 56 56 SW 12 19 29.60 1002 10 16 N/A
7:53 am 07:53 Sunny 53 11.7 37 2.8 55 55 WSW 9 15 29.61 1003 10 16 N/A
8:53 am 08:53 Sunny 57 13.9 40 4.4 53 53 WSW 10 17 29.61 1003 10 16 N/A
9:53 am 09:53 Sunny 60 15.6 41 5 50 50 W 7 11 29.62 1003 10 16 N/A
10:53 am 10:53 Sunny 66 18.9 42 5.6 42 42 WNW 10 17 29.62 1003 10 16 N/A
11:53 am 11:53 Sunny 67 19.4 39 3.9 36 36 WNW 17 28 29.63 1003 10 16 N/A
12:53 pm 12:53 Sunny 66 18.9 36 2.2 33 33 WNW 15 24 29.64 1004 10 16 N/A
1:53 pm 13:53 Mostly Cloudy 63 17.2 32 undefined 31 31 NW 17 28 29.64 1004 10 16 N/A
2:53 pm 14:53 Cloudy 64 17.8 33 0.6 32 32 NW 7 11 29.67 1005 10 16 N/A
3:53 pm 15:53 Sunny 68 20 31 -0.6 25 25 NW 15 24 29.66 1004 10 16 N/A
4:53 pm 16:53 Sunny 69 20.6 31 -0.6 24 24 NW 10 17 29.69 1005 10 16 N/A
5:53 pm 17:53 Sunny 68 20 31 -0.6 25 25 NW 17 28 29.71 1006 10 16 N/A
6:53 pm 18:53 Mostly Sunny 63 17.2 33 0.6 33 33 W 25 41 29.77 1008 10 16 N/A
7:53 pm 19:53 Cloudy 60 15.6 35 1.7 39 39 W 21 33 29.79 1009 10 16 N/A
8:53 pm 20:53 Cloudy 59 15 37 2.8 44 44 W 17 28 29.80 1009 10 16 N/A
9:53 pm 21:53 Clear 56 13.3 35 1.7 46 46 W 16 26 29.81 1010 10 16 N/A
10:53 pm 22:53 Clear 53 11.7 32 undefined 45 45 W 17 28 29.83 1010 10 16 N/A
11:53 pm 23:53 Clear 51 10.6 31 -0.6 46 46 W 21 33 29.86 1011 10 16 N/A

Powered by AerisWeather